[[{"header":{"parameterUnit":"m.s-1","parameterCategory":1,"la1":30.2991,"la2":30.254,"lo1":-89.0895,"lo2":-89.0444,"dy":0.0017,"dx":0.0017,"nx":28,"ny":28,"refTime":"2024-02-02T09:00:00:Z","depth":0,"parameterNumber":2,"parameterNumberName":"U-component_of_WINDS"},"data":[0,0,0,0,0,0,0,0,0,0,0,0,0,0,0,0,0,0,0,0,0,0,0,0,0,0,0,0,0,0,0,0,0,0,0,0,0,0,0,0,0,0,0,0,0,0,0,0,0,0,0,0,0,0,0,0,0,0,-11.5237,-11.5242,0,-11.5738,-11.5744,-11.5749,-11.5721,-11.5713,-11.5706,-11.5699,-11.6202,-11.6221,-11.6241,0,0,0,0,0,0,0,0,0,0,0,0,0,-11.4245,-11.4263,-11.5236,-11.5242,-11.5249,-11.5737,-11.5744,-11.5751,-11.5722,-11.5713,-11.5704,-11.5696,-11.6195,-11.6219,-11.6243,0,0,0,0,0,0,0,0,0,0,0,0,0,-11.4703,-11.4269,-11.5235,-11.5293,-11.5304,-11.5736,-11.5744,-11.5753,-11.5724,-11.5713,-11.5702,-11.5692,-11.6187,-11.6216,-11.6246,-11.6649,0,0,-11.6338,-11.6351,0,0,0,0,0,0,0,0,-11.4677,-11.474,-11.5279,-11.529,-11.5302,-11.5656,-11.5578,-11.6053,-11.5726,-11.5564,-11.5699,-11.5687,-11.6028,-11.6071,-11.6188,-11.6673,-11.6694,-11.6341,-11.6359,-11.6372,-11.6381,0,0,0,0,0,0,0,-11.4646,-11.4718,-11.5434,-11.5286,-11.5301,-11.5292,-11.5345,-11.5668,-11.585,-11.5577,-11.5576,-11.5637,-11.6032,-11.6159,-11.62,-11.6702,-11.634,-11.6367,-11.6386,-11.6397,-11.7543,-11.7555,0,0,0,0,0,0,-11.4602,-11.4692,-11.5418,-11.5449,-11.4957,-11.5318,-11.5378,-11.5553,-11.5847,-11.5881,-11.5645,-11.5634,-11.6113,-11.6164,-11.6217,-11.6709,-11.6372,-11.64,-11.6418,-11.7531,-11.7546,-11.7559,0,0,0,0,0,0,-11.4581,-11.4667,-11.5398,-11.5071,-11.5163,-11.5347,-11.5544,-11.5569,-11.5695,-11.5899,-11.593,-11.5742,-11.6106,-11.6175,-11.6543,-11.6726,-11.6414,-11.6441,-11.7516,-11.7536,-11.7553,-11.7695,0,0,0,0,0,0,-11.4553,-11.466,-11.4817,-11.5075,-11.5181,-11.5719,-11.5555,-11.5586,-11.5749,-11.5738,-11.5997,-11.603,-11.6103,-11.6498,-11.6573,-11.6762,-11.6465,-11.7501,-11.7525,-11.7547,-11.7675,-11.7716,-11.7752,0,0,0,0,0,-11.4518,-11.4834,-11.4825,-11.4913,-11.5381,-11.5729,-11.5789,-11.5871,-11.5764,-11.5922,-11.6053,-11.6022,-11.6695,-11.6536,-11.662,-11.6821,-11.7489,-11.7518,-11.7545,-11.7658,-11.7708,-11.7751,0,0,0,0,0,0,-11.4587,-11.4868,-11.4861,-11.5272,-11.5478,-11.5724,-11.5925,-11.5921,-11.6158,-11.6138,-11.6225,-11.6284,-11.6654,-11.6774,-11.6593,-11.7227,-11.7078,-11.7124,-11.7134,-11.7184,-11.7222,-11.7184,-11.649,0,0,0,0,0,-11.4652,-11.4914,-11.5144,-11.5483,-11.5588,-11.574,-11.5894,-11.594,-11.6154,-11.624,-11.6397,-11.6604,-11.6862,-11.703,-11.7279,-11.7693,-11.7748,-11.7872,-11.7911,-11.7941,-11.7979,-11.8207,-11.8265,-11.7651,-11.765,-11.765,0,0,-11.4784,-11.4971,-11.513,-11.5503,-11.5667,-11.5935,-11.5812,-11.6099,-11.6298,-11.6282,-11.6641,-11.6764,-11.7001,-11.7394,-11.7575,-11.7506,-11.8162,-11.7977,-11.7999,-11.8021,-11.8242,-11.83,-11.8351,-11.7669,-11.7666,-11.7663,0,0,-11.5163,-11.5332,-11.5634,-11.5803,-11.6056,-11.6156,-11.6228,-11.6478,-11.6561,-11.6923,-11.6917,-11.7153,-11.7596,-11.7765,-11.7909,-11.8358,-11.8338,-11.8436,-11.8635,-11.8857,-11.8905,-11.8949,-11.9108,-11.9164,-11.8474,-11.8474,-11.8474,0,-11.5295,-11.5702,-11.5788,-11.608,-11.6244,-11.6248,-11.6553,-11.6711,-11.7031,-11.7142,-11.7062,-11.762,-11.7779,-11.8212,-11.8323,-11.8439,-11.8523,-11.8405,-11.8892,-11.8937,-11.8978,-11.9131,-11.9191,-11.8484,-11.8483,-11.8482,-11.8481,0,-11.5851,-11.6133,-11.6346,-11.6661,-11.6849,-11.7145,-11.7275,-11.7454,-11.7484,-11.7592,-11.7961,-11.8153,-11.8441,-11.8548,-11.8578,-11.8987,-11.8936,-11.8874,-11.8725,-11.9046,-11.919,-11.925,-11.8499,-11.8495,-11.8492,-11.849,0,0,-11.6283,-11.6647,-11.6723,-11.6867,-11.7149,-11.7367,-11.7664,-11.7951,-11.8103,-11.8324,-11.8573,-11.8951,-11.8896,-11.9059,-11.9109,-11.9304,-11.9647,-11.9217,-11.9224,-11.9289,-12.0108,-12.0153,-12.0219,-11.9637,-11.9648,-11.9657,-12.0088,0,-11.669,-11.7221,-11.731,-11.7774,-11.8035,-11.8045,-11.8303,-11.8503,-11.8612,-11.8847,-11.8966,-11.9232,-11.914,-11.9239,-11.9432,-11.9564,-11.9812,-11.9534,-11.9866,-11.9877,-11.9805,-12.0295,-12.0343,-12.0739,-12.0145,-12.0155,-12.0162,0,-11.7234,-11.7476,-11.7967,-11.8218,-11.833,-11.8562,-11.8833,-11.9059,-11.9286,-11.9351,-11.9537,-11.9565,-11.9871,-11.9712,-12.0134,-11.9943,-12.0085,-12.017,-12.0188,-12.0219,-12.0037,-12.0338,-12.0868,-12.0927,-12.0252,-12.0245,-12.0238,0,-11.7498,-11.7947,-11.83,-11.8422,-11.8723,-11.8885,-11.9017,-11.9234,-11.9402,-11.9638,-11.9748,-12.0015,-12.016,-12.0365,-12.0464,-12.0339,-12.088,-12.0728,-12.094,-12.0938,-12.1051,-12.1042,-12.1609,-12.1146,-12.1145,-12.1143,-12.1142,0,-11.7942,-11.8241,-11.8423,-11.8639,-11.8976,-11.9075,-11.9404,-11.9531,-11.9725,-11.9965,-11.9989,-12.0212,-12.033,-12.0571,-12.0649,-12.0987,-12.1052,-12.1112,-12.1128,-12.1109,-12.1101,-12.12,-12.1175,-12.1159,-12.1156,-12.1153,-12.115,0,-11.8291,-11.8426,-11.8811,-11.9067,-11.9138,-11.9375,-11.9592,-11.9801,-11.9912,-12.0215,-12.0291,-12.0463,-12.0748,-12.0869,-12.1216,-12.127,-12.1656,-12.1653,-12.1581,-12.1586,-12.1791,-12.1769,-12.2439,-12.2532,-12.2009,-12.2014,-12.2018,0,-11.8564,-11.8796,-11.9079,-11.9245,-11.9383,-11.9648,-11.9821,-11.9928,-12.0107,-12.0385,-12.0561,-12.0848,-12.1082,-12.1536,-12.169,-12.1957,-12.1959,-12.2176,-12.1998,-12.1972,-12.1961,-12.1945,-12.1968,-12.2207,-12.2212,-12.2216,-12.222,0,-11.9033,-11.909,-11.9341,-11.9618,-11.9826,-12.0047,-12.0263,-12.0396,-12.0536,-12.0735,-12.103,-12.1213,-12.1572,-12.1856,-12.2133,-12.2264,-12.2266,-12.2275,-12.2338,-12.2319,-12.2267,-12.2297,-12.1667,-12.2258,-12.2254,-12.2251,-12.2249,-12.2248,-11.9352,-11.956,-11.9793,-12.0073,-12.0248,-12.0451,-12.0662,-12.0802,-12.1051,-12.1355,-12.1403,-12.1717,-12.1939,-12.2313,-12.2456,-12.2702,-12.2646,-12.2738,-12.276,-12.2781,-12.2794,-12.2231,-12.2752,-12.2751,-12.2751,-12.275,-12.2749,0,-11.9821,-11.9973,-12.0231,-12.0536,-12.0756,-12.0745,-12.0985,-12.1168,-12.1446,-12.1656,-12.1889,-12.2228,-12.2505,-12.2683,-12.2961,-12.3123,-12.313,-12.3192,-12.3179,-12.321,-12.2827,-12.2745,-12.3182,-12.3181,-12.3181,-12.3181,-12.3181,-12.3181,-12.009,-12.0442,-12.0527,-12.0965,-12.1115,-12.1428,-12.1565,-12.1752,-12.1921,-12.23,-12.2532,-12.2649,-12.2846,-12.314,-12.3392,-12.3437,-12.3537,-12.3602,-12.3643,-12.3282,-12.3237,-12.3193,-12.3116,-12.3624,-12.3624,-12.4005,-12.4009,-12.4011]},{"header":{"parameterUnit":"m.s-1","parameterCategory":1,"la1":30.2991,"la2":30.254,"lo1":-89.0895,"lo2":-89.0444,"dy":0.0017,"dx":0.0017,"nx":28,"ny":28,"refTime":"2024-02-02T09:00:00:Z","depth":0,"parameterNumber":3,"parameterNumberName":"V-component_of_WINDS"},"data":[0,0,0,0,0,0,0,0,0,0,0,0,0,0,0,0,0,0,0,0,0,0,0,0,0,0,0,0,0,0,0,0,0,0,0,0,0,0,0,0,0,0,0,0,0,0,0,0,0,0,0,0,0,0,0,0,0,0,-0.9803,-0.9801,0,-0.9641,-0.964,-0.9638,-0.9542,-0.9542,-0.9542,-0.9541,-0.937,-0.9366,-0.9361,0,0,0,0,0,0,0,0,0,0,0,0,0,-1.002,-1.0017,-0.9803,-0.9801,-0.9799,-0.9642,-0.964,-0.9637,-0.9542,-0.9542,-0.9541,-0.9541,-0.9371,-0.9366,-0.9361,0,0,0,0,0,0,0,0,0,0,0,0,0,-0.9899,-1.0016,-0.9804,-0.9733,-0.9725,-0.9642,-0.9639,-0.9637,-0.9542,-0.9542,-0.9541,-0.9541,-0.9373,-0.9367,-0.936,-0.9333,0,0,-0.9341,-0.9338,0,0,0,0,0,0,0,0,-0.9906,-0.9891,-0.9745,-0.9738,-0.9729,-0.9612,-0.9653,-0.9535,-0.9543,-0.9612,-0.9541,-0.954,-0.945,-0.9438,-0.9408,-0.9325,-0.9318,-0.9341,-0.9337,-0.9334,-0.9332,0,0,0,0,0,0,0,-0.9915,-0.9898,-0.9739,-0.9743,-0.9733,-0.9706,-0.9688,-0.963,-0.9536,-0.9606,-0.9598,-0.9581,-0.9446,-0.9415,-0.9404,-0.9315,-0.9341,-0.9335,-0.9331,-0.9329,-0.9196,-0.9196,0,0,0,0,0,0,-0.9935,-0.9905,-0.9744,-0.9734,-0.9818,-0.9703,-0.9683,-0.965,-0.9536,-0.9519,-0.9581,-0.9577,-0.9426,-0.9411,-0.9397,-0.9355,-0.9334,-0.9328,-0.9325,-0.9196,-0.9196,-0.9196,0,0,0,0,0,0,-0.994,-0.9922,-0.9751,-0.9818,-0.9794,-0.97,-0.9663,-0.9647,-0.9616,-0.9518,-0.95,-0.9568,-0.9425,-0.9406,-0.9349,-0.9348,-0.9325,-0.932,-0.9195,-0.9196,-0.9196,-0.9273,0,0,0,0,0,0,-0.9947,-0.9924,-0.9916,-0.9818,-0.9791,-0.9709,-0.9663,-0.9644,-0.9606,-0.9599,-0.9501,-0.9484,-0.9423,-0.9359,-0.9343,-0.9339,-0.9315,-0.9195,-0.9196,-0.9196,-0.927,-0.9276,-0.9281,0,0,0,0,0,-0.9955,-0.9944,-0.9916,-0.9897,-0.9778,-0.9709,-0.9693,-0.9624,-0.9607,-0.9595,-0.9531,-0.9487,-0.9351,-0.9354,-0.9335,-0.9329,-0.9195,-0.9195,-0.9196,-0.9267,-0.9274,-0.928,0,0,0,0,0,0,-1.0043,-0.993,-0.9898,-0.9855,-0.9792,-0.9693,-0.9677,-0.9635,-0.9575,-0.957,-0.9485,-0.9464,-0.9414,-0.9365,-0.9372,-0.9294,-0.9267,-0.9264,-0.9328,-0.9334,-0.9339,-0.9352,-0.931,0,0,0,0,0,-1.0057,-1.0013,-0.9915,-0.9887,-0.9857,-0.9773,-0.974,-0.9692,-0.9623,-0.9596,-0.9528,-0.9461,-0.9401,-0.9365,-0.9306,-0.9262,-0.9237,-0.9247,-0.9253,-0.9258,-0.9256,-0.9224,-0.9227,-0.9198,-0.9198,-0.9198,0,0,-1.0086,-1.0019,-0.9996,-0.9902,-0.9848,-0.9801,-0.9751,-0.9704,-0.9667,-0.9588,-0.953,-0.9477,-0.9396,-0.9344,-0.9318,-0.9302,-0.9258,-0.9258,-0.9263,-0.9258,-0.9225,-0.9228,-0.923,-0.9198,-0.9198,-0.9198,0,0,-1.0115,-1.0061,-1.003,-0.9976,-0.9895,-0.9838,-0.983,-0.9736,-0.9698,-0.9639,-0.9577,-0.953,-0.9432,-0.9375,-0.9334,-0.9336,-0.9291,-0.9318,-0.9346,-0.9317,-0.9319,-0.932,-0.9318,-0.9319,-0.9317,-0.9317,-0.9317,0,-1.0161,-1.0091,-1.0019,-0.9974,-0.9933,-0.9859,-0.9824,-0.9774,-0.9677,-0.9649,-0.9633,-0.9505,-0.9445,-0.9377,-0.9377,-0.9347,-0.9332,-0.933,-0.9325,-0.9326,-0.9326,-0.9323,-0.9323,-0.9321,-0.932,-0.932,-0.9319,0,-1.0149,-1.01,-1.0084,-0.9993,-0.9949,-0.991,-0.9829,-0.9792,-0.9747,-0.9691,-0.9628,-0.9553,-0.9476,-0.9456,-0.9412,-0.938,-0.9372,-0.9342,-0.9313,-0.9334,-0.9329,-0.9328,-0.9326,-0.9325,-0.9324,-0.9323,0,0,-1.0232,-1.0099,-1.0094,-1.005,-0.9952,-0.9912,-0.9866,-0.9792,-0.9761,-0.9694,-0.9652,-0.9568,-0.9538,-0.9491,-0.9438,-0.9412,-0.9414,-0.9383,-0.938,-0.939,-0.937,-0.9394,-0.9394,-0.9384,-0.9383,-0.9383,-0.9376,0,-1.0245,-1.0164,-1.0096,-1.0038,-0.9989,-0.9916,-0.9875,-0.9809,-0.9754,-0.9702,-0.9639,-0.9581,-0.9547,-0.9517,-0.9488,-0.9421,-0.9409,-0.942,-0.934,-0.9338,-0.9363,-0.9392,-0.9417,-0.9416,-0.9375,-0.9374,-0.9374,0,-1.0251,-1.0189,-1.0127,-1.003,-1.0007,-0.9973,-0.9896,-0.9849,-0.977,-0.9731,-0.9676,-0.9621,-0.9565,-0.9541,-0.9461,-0.947,-0.9432,-0.9394,-0.9392,-0.9381,-0.9358,-0.9381,-0.9414,-0.9413,-0.9371,-0.9371,-0.9371,0,-1.0315,-1.0215,-1.0164,-1.0128,-1.0015,-0.9992,-0.9943,-0.9864,-0.9822,-0.9754,-0.9725,-0.9651,-0.961,-0.9552,-0.9476,-0.9466,-0.9402,-0.9373,-0.9365,-0.9367,-0.9356,-0.9357,-0.9382,-0.9333,-0.9333,-0.9333,-0.9333,0,-1.0337,-1.0301,-1.019,-1.0159,-1.0115,-1.0034,-0.9992,-0.9936,-0.9865,-0.9819,-0.975,-0.9707,-0.961,-0.9554,-0.9493,-0.9434,-0.9416,-0.9381,-0.9365,-0.9386,-0.9391,-0.9361,-0.9358,-0.9333,-0.9333,-0.9333,-0.9333,0,-1.0402,-1.0326,-1.0265,-1.0163,-1.0135,-1.0107,-1.0017,-0.9981,-0.9921,-0.9863,-0.9844,-0.9748,-0.9678,-0.9596,-0.95,-0.9458,-0.9403,-0.9381,-0.9431,-0.9422,-0.9418,-0.9419,-0.9423,-0.9418,-0.9375,-0.9376,-0.9376,0,-1.0421,-1.0391,-1.0285,-1.025,-1.0203,-1.0147,-1.0103,-1.0021,-0.9977,-0.9883,-0.9857,-0.9782,-0.9718,-0.9608,-0.9528,-0.9452,-0.9426,-0.9433,-0.9415,-0.9436,-0.9424,-0.9426,-0.9421,-0.9438,-0.9439,-0.944,-0.944,0,-1.0461,-1.0424,-1.0366,-1.0293,-1.0243,-1.0181,-1.0115,-1.0089,-0.9992,-0.9946,-0.9875,-0.9825,-0.9725,-0.9649,-0.9563,-0.9508,-0.9457,-0.9446,-0.944,-0.9462,-0.9491,-0.9473,-0.9443,-0.9447,-0.9446,-0.9446,-0.9446,-0.9445,-1.0502,-1.0471,-1.0391,-1.0326,-1.0268,-1.0208,-1.0168,-1.0102,-1.0042,-0.9955,-0.9909,-0.9837,-0.9753,-0.9631,-0.9578,-0.9517,-0.95,-0.9492,-0.9489,-0.9488,-0.9494,-0.9501,-0.9501,-0.9501,-0.9501,-0.95,-0.95,0,-1.0537,-1.0481,-1.0422,-1.0333,-1.0281,-1.0239,-1.0163,-1.0121,-1.006,-0.9987,-0.9924,-0.9839,-0.9764,-0.9677,-0.9596,-0.9564,-0.9538,-0.9545,-0.9546,-0.9533,-0.9515,-0.9528,-0.9567,-0.9567,-0.9567,-0.9567,-0.9567,-0.9567,-1.0549,-1.0494,-1.0447,-1.036,-1.0303,-1.0233,-1.0193,-1.0135,-1.0076,-0.9985,-0.9924,-0.9867,-0.9787,-0.9698,-0.9626,-0.9602,-0.9574,-0.9588,-0.9557,-0.9541,-0.9535,-0.953,-0.9541,-0.9583,-0.9583,-0.958,-0.958,-0.958]}]]